Theta_e
335 333 330 328 328 337 342 342 342 339 338 340 337 336 335 333 334 331 326 321 317 314 312 311 311 311 310 310 310 310 310 310
333 331 329 329 331 334 342 341 341 339 338 337 337 335 332 331 323 314 310 308 307 307 306 306 306 306 306 307 308 309 310 311
332 331 329 329 332 333 335 341 340 339 338 337 333 333 325 317 311 308 307 307 306 305 304 304 303 304 305 306 308 310 310 310
332 331 330 329 331 333 336 341 339 339 339 334 332 327 315 309 308 307 305 303 303 303 303 303 304 304 304 304 304 306 305 304
331 331 330 329 331 337 338 339 340 339 335 331 330 319 310 307 305 303 303 302 303 303 303 303 303 303 303 302 302 302 301 300
330 331 330 331 334 337 337 338 337 334 329 320 314 309 305 304 303 302 302 302 303 303 302 302 301 301 300 300 300 300 299 299
330 331 331 334 336 335 335 334 329 322 311 307 307 306 305 303 302 302 302 302 302 302 301 301 300 300 300 300 300 300 300 299
328 330 331 334 334 331 329 327 318 309 308 308 307 305 304 303 303 302 301 301 301 301 301 300 300 300 300 300 300 300 300 300
325 328 328 329 326 323 320 314 313 309 308 307 306 306 305 303 301 300 300 300 300 300 299 299 299 299 299 299 299 299 300 300
321 323 323 324 320 317 314 310 309 308 306 306 306 305 303 301 299 299 299 299 299 299 299 299 299 300 300 300 300 300 300 300
318 318 319 317 315 313 310 309 309 307 306 305 304 301 300 299 299 299 299 299 299 299 299 299 299 299 299 300 300 300 300 300
316 316 317 315 313 311 309 308 307 305 304 303 302 300 299 299 299 299 299 298 298 299 299 298 298 298 298 298 299 299 299 299
315 313 316 314 312 309 308 306 305 304 303 302 300 299 299 299 299 298 297 297 297 297 296 297 297 297 296 296 296 296 296 296
312 313 316 313 309 307 305 304 303 302 301 300 299 299 299 299 298 297 296 295 295 296 297 297 296 296 296 296 296 296 296 296
312 313 314 310 308 306 304 303 302 301 300 300 299 299 299 298 297 296 294 294 296 297 297 297 296 296 296 296 295 296 296 296
311 312 311 308 306 304 302 301 300 300 300 299 299 299 298 297 295 294 295 297 297 296 297 296 296 296 296 296 296 296 296 297
311 310 308 307 305 302 301 301 300 300 299 299 299 297 296 295 294 295 297 297 296 296 296 296 296 296 296 297 297 297 297 297
309 310 308 306 303 301 300 300 300 299 299 299 297 296 294 293 295 296 296 296 296 296 296 296 295 295 295 296 296 297 297 296
306 306 304 304 302 300 300 299 299 299 299 297 295 295 294 294 296 296 296 296 296 296 295 295 295 295 295 295 296 296 296 295
Wind_Speed
31 26 23 20 19 22 25 25 25 24 20 19 15 10 10 9 10 9 7 5 4 4 6 8 11 13 15 17 19 20 20 23
30 27 25 21 22 25 27 27 27 25 23 20 18 15 15 14 11 8 5 2 3 7 9 11 13 15 17 20 21 21 22 25
32 29 25 22 22 24 25 29 26 25 22 21 15 17 17 13 9 4 1 5 8 11 13 15 16 17 19 20 21 23 24 25
35 32 28 25 23 23 27 31 28 28 25 24 21 20 17 11 6 2 4 6 9 11 14 15 15 15 16 16 17 17 18 18
38 35 32 29 25 24 26 31 32 30 26 23 21 21 16 10 5 4 5 8 10 10 12 13 15 16 16 15 15 15 17 19
44 41 36 30 26 29 31 33 32 29 26 23 22 18 12 7 3 3 5 7 9 11 12 12 14 15 14 15 16 15 15 17
43 41 35 32 31 33 35 35 32 29 26 21 16 13 8 4 1 2 3 6 8 9 10 12 11 11 12 11 12 13 14 15
43 45 42 41 41 40 37 36 34 29 24 20 14 8 3 1 2 3 5 6 7 10 11 11 11 13 14 15 16 17 17 18
47 49 46 46 44 42 39 37 34 28 22 17 12 7 2 2 3 5 6 9 11 11 13 15 17 18 19 19 20 22 22 24
41 47 49 47 45 42 39 35 30 26 20 14 10 5 2 1 2 4 6 9 11 14 17 19 20 21 22 23 24 25 25 25
34 44 49 46 44 40 36 32 29 23 18 14 9 4 3 2 2 6 9 12 15 17 18 19 20 22 23 23 23 24 25 25
37 44 49 47 43 40 36 32 28 23 18 13 9 6 5 4 6 10 12 13 16 18 19 21 22 24 25 26 27 27 27 27
32 38 51 47 44 41 38 33 27 22 18 14 11 8 6 6 9 11 13 16 18 20 21 22 23 24 25 24 24 23 23 24
30 41 51 49 46 42 38 32 27 23 19 15 11 8 7 8 10 13 15 17 19 20 20 22 23 21 19 18 19 21 22 23
34 44 52 50 47 43 38 33 28 24 19 14 10 8 8 10 13 15 16 17 18 19 19 19 18 16 16 18 19 20 21 22
39 50 55 52 47 42 37 32 27 22 18 13 10 8 10 13 14 14 15 16 17 17 16 13 13 15 16 18 19 20 22 23
44 48 54 54 49 44 38 32 27 21 16 12 8 8 12 13 12 13 14 14 14 12 11 11 12 13 16 17 20 23 24 26
48 57 59 56 50 44 38 32 26 21 14 9 7 10 10 12 12 11 12 11 9 9 10 12 12 16 20 23 24 23 24 26
42 48 50 53 46 42 37 32 24 17 10 8 7 10 13 11 9 10 11 10 10 11 11 11 14 17 21 24 26 26 26 28
Wind_Direction
215 213 210 209 209 209 201 198 191 188 181 181 184 193 196 208 208 208 204 221 238 276 299 303 306 309 310 307 307 308 309 308
212 211 208 206 200 206 204 203 192 188 181 180 185 194 186 186 180 181 181 218 325 337 332 328 325 322 320 319 316 315 317 320
210 212 211 212 208 205 203 201 198 197 190 187 203 200 174 177 169 168 351 340 328 324 326 326 324 324 321 316 316 318 318 320
207 209 210 213 213 201 198 192 197 192 189 186 184 180 175 169 167 231 300 314 325 329 327 327 326 323 321 322 323 325 330 332
210 209 209 209 205 191 190 193 192 191 188 188 195 183 179 182 205 262 312 324 328 331 330 327 328 329 328 327 328 327 329 335
208 207 207 202 194 187 189 190 188 182 181 184 180 180 184 192 221 307 323 327 331 333 333 333 335 338 336 334 333 329 330 330
207 203 199 194 190 187 186 181 176 175 175 172 176 178 175 163 81 342 340 337 334 334 335 332 331 330 331 323 322 322 321 321
195 194 190 186 182 183 182 181 176 173 174 174 173 173 158 72 358 344 336 328 321 316 313 309 306 310 309 305 302 300 299 298
197 193 188 185 182 181 181 180 179 176 178 176 176 182 206 308 336 329 321 314 314 306 305 307 305 305 303 298 296 296 297 297
193 191 191 186 183 181 181 181 182 179 178 179 184 189 214 238 305 312 307 305 299 300 300 300 302 301 300 301 303 303 301 301
188 192 191 187 184 181 182 185 185 178 180 182 178 177 192 213 287 300 293 289 294 298 300 300 301 301 301 301 299 299 298 297
188 190 190 186 183 183 183 184 183 182 182 180 183 189 190 233 277 286 288 298 300 300 299 302 304 303 302 300 298 297 295 297
186 186 188 185 184 184 185 183 183 185 184 185 188 191 214 257 277 286 298 302 303 303 304 305 306 307 305 303 302 303 305 306
182 188 189 187 185 185 184 183 184 185 185 187 190 206 242 266 285 299 304 304 304 307 309 312 312 309 310 312 313 311 311 310
186 189 189 188 187 186 185 184 185 185 187 190 202 227 256 285 297 302 304 305 306 308 312 310 309 312 312 309 310 312 312 312
190 189 189 188 187 186 184 183 183 187 188 194 212 246 284 295 297 303 304 304 307 309 306 309 310 313 315 312 312 314 317 316
194 189 187 189 187 184 181 182 184 186 191 204 234 276 291 294 303 303 304 308 306 304 310 317 321 322 318 314 311 313 314 317
193 191 190 191 188 182 181 183 186 190 197 216 248 279 293 295 298 305 310 309 303 311 314 314 317 322 320 316 315 313 314 314
190 186 185 190 183 180 182 184 183 188 204 227 258 296 284 280 290 300 305 310 312 313 316 317 315 319 318 316 315 316 315 316